Вернуться в каталог

DELTA 2 R/B(1)

АктивенLEO
NORAD 25135·ROCKET BODY·🇺🇸 United States

Запущен Jan 10, 1998 с Cape Canaveral Space Force Station

Loading…

Ближайшие Пролёты (ближайшие 24 часа)

TLE

СвежийSource: Space-Track

Эпоха: Sep 14, 2026, 12:25 UTC

1 25135U 98002B   26257.51752012  .00000187  00000-0  57781-4 0  9998
2 25135  26.8860 271.0137 0354861 288.2199 241.1635 13.62783739429078

Отслеживайте DELTA 2 R/B(1) в реальном времени с AllMySat

Download on the App Store